SDM6662 UMKK-ULLI

Flight info

Callsign SDM6662
Flight time N/A
Altitude 38000
Route PELUG3N PELUG DCT KEDUX/N0493F390 DCT PIVAX DCT PINIX DCT PIRUX DCT PISIM DCT PIDIN DCT ARANS/K0919F390 DCT PISIS DCT AKARU AKARU1V
Aircraft B77W/H-SDE1E2E3FGHIJ2J3J4J5M1RWXY/LB1D1

Departure

Time 2026-04-28 13:47
Airport Khrabrovo Airport (UMKK)

Arrival

Time N/A
Airport Pulkovo Airport (ULLI)
Time Latitude Longitude Altitude Speed Heading
2026-04-28 13:16 54.88427 20.58806 31 ft 0 kts 222°
2026-04-28 13:33 54.88438 20.58823 30 ft 4 kts 221°
2026-04-28 13:33 54.88444 20.58831 31 ft 2 kts 222°
2026-04-28 13:34 54.88459 20.58851 28 ft 4 kts 187°
2026-04-28 13:34 54.88476 20.58847 28 ft 4 kts 144°
2026-04-28 13:34 54.88493 20.58817 31 ft 4 kts 123°
2026-04-28 13:34 54.88504 20.58788 31 ft 4 kts 130°
2026-04-28 13:35 54.88517 20.58766 29 ft 4 kts 169°
2026-04-28 13:35 54.88526 20.58764 29 ft 4 kts 221°
2026-04-28 13:35 54.88541 20.58797 27 ft 4 kts 241°
2026-04-28 13:35 54.88553 20.58838 30 ft 3 kts 246°
2026-04-28 13:36 54.88564 20.58881 29 ft 4 kts 246°
2026-04-28 13:36 54.88571 20.58908 29 ft 0 kts 246°
2026-04-28 13:38 54.88569 20.58903 29 ft 3 kts 246°
2026-04-28 13:38 54.88564 20.58828 29 ft 5 kts 288°
2026-04-28 13:39 54.88600 20.58781 31 ft 9 kts 336°
2026-04-28 13:39 54.88668 20.58730 31 ft 11 kts 336°
2026-04-28 13:39 54.88709 20.58699 31 ft 0 kts 336°
2026-04-28 13:41 54.88712 20.58696 31 ft 2 kts 336°
2026-04-28 13:41 54.88744 20.58672 30 ft 8 kts 336°
2026-04-28 13:41 54.88821 20.58643 26 ft 14 kts 14°
2026-04-28 13:42 54.88886 20.58785 27 ft 17 kts 66°
2026-04-28 13:42 54.88938 20.58987 27 ft 20 kts 66°
2026-04-28 13:42 54.88997 20.59217 30 ft 22 kts 66°
2026-04-28 13:42 54.89066 20.59477 30 ft 25 kts 65°
2026-04-28 13:43 54.89146 20.59778 27 ft 29 kts 65°
2026-04-28 13:43 54.89235 20.60118 26 ft 32 kts 65°
2026-04-28 13:43 54.89327 20.60479 28 ft 30 kts 66°
2026-04-28 13:43 54.89418 20.60831 26 ft 33 kts 66°
2026-04-28 13:44 54.89509 20.61186 31 ft 31 kts 65°
2026-04-28 13:44 54.89600 20.61537 27 ft 33 kts 66°
2026-04-28 13:44 54.89686 20.61874 29 ft 17 kts 66°
2026-04-28 13:44 54.89733 20.62055 29 ft 14 kts 69°
2026-04-28 13:45 54.89751 20.62191 28 ft 5 kts 36°
2026-04-28 13:45 54.89771 20.62186 29 ft 1 kts 325°
2026-04-28 13:45 54.89773 20.62168 29 ft 2 kts 277°
2026-04-28 13:45 54.89763 20.62134 28 ft 5 kts 237°
2026-04-28 13:46 54.89744 20.62080 27 ft 0 kts 241°
2026-04-28 13:46 54.89727 20.62024 29 ft 21 kts 243°
2026-04-28 13:47 54.89552 20.61353 28 ft 107 kts 246°
2026-04-28 13:47 54.89109 20.59703 47 ft 187 kts 243°
2026-04-28 13:47 54.88504 20.57616 882 ft 192 kts 242°
2026-04-28 13:47 54.88088 20.55471 1822 ft 197 kts 267°
2026-04-28 13:48 54.88542 20.53080 2151 ft 227 kts 308°
2026-04-28 13:48 54.89881 20.51511 2786 ft 242 kts 338°
2026-04-28 13:48 54.91511 20.50493 3543 ft 253 kts 339°
2026-04-28 13:48 54.93189 20.49400 4414 ft 262 kts 338°
2026-04-28 13:49 54.94912 20.48213 5294 ft 270 kts 337°
2026-04-28 13:49 54.96663 20.46935 6260 ft 275 kts 336°
2026-04-28 13:49 54.98420 20.45597 7257 ft 277 kts 335°
2026-04-28 13:49 55.00193 20.44212 8193 ft 281 kts 335°
2026-04-28 13:50 55.01990 20.42784 9127 ft 286 kts 335°
2026-04-28 13:50 55.03809 20.41323 10034 ft 290 kts 334°
2026-04-28 13:50 55.05675 20.39813 10724 ft 305 kts 334°
2026-04-28 13:50 55.07694 20.38171 10978 ft 336 kts 334°
2026-04-28 13:51 55.09912 20.36363 11236 ft 366 kts 334°
2026-04-28 13:51 55.12238 20.34462 11953 ft 380 kts 334°
2026-04-28 13:51 55.14653 20.32486 12991 ft 387 kts 334°
2026-04-28 13:51 55.17170 20.30557 14098 ft 392 kts 337°
2026-04-28 13:52 55.19694 20.28803 15132 ft 398 kts 338°
2026-04-28 13:52 55.22300 20.27053 16152 ft 404 kts 339°
2026-04-28 13:52 55.24947 20.25283 17118 ft 410 kts 339°
2026-04-28 13:52 55.27641 20.23470 18059 ft 416 kts 338°
2026-04-28 13:53 55.30362 20.21622 18963 ft 422 kts 338°
2026-04-28 13:53 55.33121 20.19733 19851 ft 428 kts 338°
2026-04-28 13:53 55.35909 20.17813 20702 ft 433 kts 338°
2026-04-28 13:53 55.38731 20.15861 21521 ft 439 kts 338°
2026-04-28 13:54 55.41590 20.13878 22304 ft 444 kts 338°
2026-04-28 13:54 55.44446 20.11892 23053 ft 449 kts 338°
2026-04-28 13:54 55.47372 20.09855 23775 ft 454 kts 338°
2026-04-28 13:54 55.50329 20.07793 24475 ft 459 kts 338°
2026-04-28 13:55 55.53318 20.05706 25157 ft 464 kts 338°
2026-04-28 13:55 55.56334 20.03597 25814 ft 468 kts 338°
2026-04-28 13:55 55.59378 20.01465 26419 ft 473 kts 338°
2026-04-28 13:55 55.62453 19.99307 27007 ft 477 kts 338°
2026-04-28 13:56 55.65555 19.97128 27576 ft 481 kts 338°
2026-04-28 13:56 55.68681 19.94927 28114 ft 485 kts 338°
2026-04-28 13:56 55.71832 19.92705 28624 ft 489 kts 338°
2026-04-28 13:56 55.75010 19.90459 29098 ft 493 kts 338°
2026-04-28 13:57 55.78211 19.88194 29540 ft 496 kts 338°
2026-04-28 13:57 55.81387 19.85942 29965 ft 499 kts 338°
2026-04-28 13:57 55.84661 19.83617 30412 ft 501 kts 338°
2026-04-28 13:57 55.87853 19.81346 30945 ft 500 kts 338°
2026-04-28 13:58 55.91074 19.79050 31534 ft 497 kts 338°
2026-04-28 13:58 55.94280 19.76760 32087 ft 496 kts 338°
2026-04-28 13:58 55.97478 19.74473 32589 ft 495 kts 338°
2026-04-28 13:58 56.00668 19.72187 33059 ft 494 kts 338°
2026-04-28 13:59 56.03858 19.69896 33540 ft 493 kts 338°
2026-04-28 13:59 56.07043 19.67605 33999 ft 492 kts 338°
2026-04-28 13:59 56.10215 19.65320 34449 ft 491 kts 338°
2026-04-28 13:59 56.13381 19.63036 34891 ft 490 kts 338°
2026-04-28 14:00 56.16543 19.60769 35306 ft 488 kts 340°
2026-04-28 14:00 56.19824 19.59186 35615 ft 490 kts 351°
2026-04-28 14:00 56.23220 19.58727 35996 ft 489 kts
2026-04-28 14:00 56.26617 19.59270 36378 ft 488 kts 11°
2026-04-28 14:01 56.29886 19.60608 36694 ft 488 kts 13°
2026-04-28 14:01 56.33181 19.62106 36972 ft 489 kts 14°
2026-04-28 14:01 56.36482 19.63641 37285 ft 490 kts 14°
2026-04-28 14:01 56.39776 19.65156 37614 ft 489 kts 14°
2026-04-28 14:02 56.43080 19.66643 37905 ft 490 kts 13°
2026-04-28 14:02 56.46407 19.68113 37947 ft 494 kts 13°
2026-04-28 14:02 56.53110 19.71030 37992 ft 493 kts 13°
2026-04-28 14:03 56.59726 19.73905 37996 ft 487 kts 13°
2026-04-28 14:03 56.66317 19.76785 38003 ft 487 kts 13°
2026-04-28 14:04 56.72901 19.79678 38002 ft 487 kts 13°
2026-04-28 14:04 56.79498 19.82588 38003 ft 488 kts 13°
2026-04-28 14:05 56.86055 19.85490 38003 ft 489 kts 13°
2026-04-28 14:05 56.92668 19.88428 38002 ft 489 kts 13°
2026-04-28 14:06 56.99292 19.91381 38002 ft 490 kts 13°
2026-04-28 14:06 57.05875 19.94653 38002 ft 490 kts 16°
2026-04-28 14:07 57.12397 19.98311 38001 ft 490 kts 17°
2026-04-28 14:07 57.18926 20.01978 38001 ft 490 kts 17°
2026-04-28 14:08 57.25462 20.05590 38001 ft 490 kts 16°
2026-04-28 14:08 57.30897 20.08579 38001 ft 490 kts 16°
2026-04-28 14:09 57.38535 20.12789 38001 ft 490 kts 16°
2026-04-28 14:09 57.45064 20.16407 38001 ft 490 kts 16°
2026-04-28 14:10 57.51588 20.20037 38001 ft 489 kts 16°
2026-04-28 14:10 57.58117 20.23685 38001 ft 489 kts 17°
2026-04-28 14:11 57.64639 20.27342 38001 ft 489 kts 17°
2026-04-28 14:11 57.71117 20.30988 38001 ft 489 kts 17°
2026-04-28 14:12 57.77628 20.34667 38001 ft 489 kts 17°
2026-04-28 14:12 57.84146 20.38362 38001 ft 489 kts 17°
2026-04-28 14:13 57.90663 20.42072 38001 ft 489 kts 17°
2026-04-28 14:13 57.97176 20.45794 38001 ft 489 kts 17°
2026-04-28 14:14 58.03698 20.49535 38001 ft 489 kts 17°
2026-04-28 14:14 58.10210 20.53284 38001 ft 489 kts 17°